Location: The Saddle
(36.8333°N, 80.3417°W)
Time: 06:56:50
(UTC-05:00)

Vanguard 3 - Pass Details

Date: 08 February 2026
Orbit: 507 x 3205 km, 33.3° (Epoch: 5 March)

Event Time Altitude Azimuth Distance (km) Brightness Sun altitude
Rises 19:43:39 0° 242° (WSW) 3,326 11.4 -22.3°
Reaches altitude 10° 19:46:39 10° 234° (SW) 2,112 10.0 -22.9°
Enters shadow 19:50:24 34° 182° (S) 926 7.4 -23.6°
